Location: Albany
(35.0000°S, 118.0000°E)
Time: 02:12:04
(UTC-04:00)

JAS-1B - Visible Passes

Search period start: 25 August 2016 00:00
Search period end: 04 September 2016 00:00
Orbit: 911 x 1744 km, 99.0° (Epoch: 24 August)

Date Brightness Start Highest point End Pass type
(mag) Time Alt. Az. Time Alt. Az. Time Alt. Az.
25 Aug 10.0 06:44:27 10° NNW 06:52:21 29° W 06:59:34 10° SW visible
25 Aug 10.1 16:46:04 10° ESE 16:48:24 12° E 16:50:41 10° ENE visible
26 Aug 10.5 07:04:59 10° NW 07:11:33 21° W 07:17:40 10° SW visible
26 Aug 9.7 17:03:29 10° SE 17:07:39 20° E 17:11:40 10° NE visible
27 Aug 10.8 07:26:24 10° WNW 07:30:49 14° W 07:35:03 10° WSW visible
27 Aug 9.0 17:21:45 10° SE 17:26:50 29° E 17:31:45 10° NNE visible
28 Aug 8.2 17:40:19 10° SSE 17:45:57 44° E 17:51:23 10° N visible
29 Aug 9.2 06:09:05 10° N 06:17:56 46° W 06:25:41 10° SSW visible
29 Aug 7.4 17:59:08 10° SSE 18:05:01 67° ENE 18:10:41 10° N visible
30 Aug 9.8 06:28:56 10° NNW 06:37:02 34° W 06:44:14 10° SW visible
31 Aug 10.2 06:49:11 10° NW 06:56:11 24° W 07:02:32 10° SW visible
31 Aug 10.0 16:48:40 10° ESE 16:51:46 15° E 16:54:51 10° NE visible
01 Sep 10.7 07:10:05 10° NW 07:15:23 17° W 07:20:19 10° SW visible
01 Sep 9.4 17:06:29 10° SE 17:10:58 23° E 17:15:24 10° NE visible
02 Sep 11.0 07:32:49 10° WNW 07:34:38 11° W 07:36:25 10° WSW visible
02 Sep 8.7 17:24:53 10° SSE 17:30:06 34° E 17:35:19 10° NNE visible
03 Sep 7.9 17:43:33 10° SSE 17:49:11 52° E 17:54:50 10° N visible
